Location: Winthrop
(48.4780°N, 120.1850°W)
Time: 00:56:13
(UTC-07:00)

A-11 Canister half - Pass Details

Date: 09 June 2023
Orbit: 1515 x 1684 km, 47.2° (Epoch: 29 September)

Event Time Altitude Azimuth Distance (km) Brightness Sun altitude
Exits shadow 22:55:42 11° 123° (ESE) 3,793 10.5 -13.3°
Maximum altitude 22:55:49 11° 122° (ESE) 3,792 10.5 -13.3°
Drops below altitude 10° 22:57:57 10° 109° (ESE) 3,851 10.7 -13.5°
Sets 23:04:35 0° 77° (ENE) 4,795 11.4 -14.0°
